FW2156 Weather Reports


Display with metric or nautical units.
time (UTC)temp
F
wind
direction
speed
MPH
gust
MPH
rain 1hr
in
rain 24hr
in
rain mn
in
humidity
%
barometer
mb
20260508151316 57 193 3.0 5.0 0.00 0.00 0.00 42 1008.8
20260508150816 57 304 3.0 5.0 0.00 0.00 0.00 42 1008.5
20260508150316 57 273 4.0 6.0 0.00 0.00 0.00 42 1008.5
20260508145815 56 312 4.0 5.0 0.00 0.00 0.00 42 1008.8
20260508145316 56 285 4.0 5.0 0.00 0.00 0.00 43 1008.8
20260508144815 55 287 3.0 5.0 0.00 0.00 0.00 43 1008.5
20260508144318 55 249 1.0 2.0 0.00 0.00 0.00 43 1008.8
20260508143813 54 295 4.0 5.0 0.00 0.00 0.00 43 1008.5
20260508143314 54 213 2.0 2.0 0.00 0.00 0.00 44 1008.5
20260508142814 54 237 2.0 2.0 0.00 0.00 0.00 45 1008.8
20260508142313 53 289 1.0 2.0 0.00 0.00 0.00 45 1008.8
20260508141816 53 334 5.0 8.0 0.00 0.00 0.00 45 1008.8
20260508141312 53 175 1.0 2.0 0.00 0.00 0.00 46 1008.5
20260508140814 53 293 5.0 6.0 0.00 0.00 0.00 46 1008.5
20260508140314 52 343 6.0 7.0 0.00 0.00 0.00 46 1008.8
20260508135813 52 240 2.0 3.0 0.00 0.00 0.00 48 1008.8
20260508135313 51 280 1.0 2.0 0.00 0.00 0.00 48 1008.5
20260508134811 51 275 2.0 3.0 0.00 0.00 0.00 48 1008.8
20260508134314 51 234 1.0 2.0 0.00 0.00 0.00 49 1008.5
20260508133814 50 282 2.0 2.0 0.00 0.00 0.00 49 1008.8
20260508133312 50 268 1.0 2.0 0.00 0.00 0.00 50 1008.8
20260508132813 50 310 3.0 3.0 0.00 0.00 0.00 50 1008.8
20260508132313 50 244 2.0 2.0 0.00 0.00 0.00 51 1008.5
20260508131812 49 256 1.0 1.0 0.00 0.00 0.00 52 1008.8
20260508131242 49 305 1.0 3.0 0.00 0.00 0.00 52 1008.5
20260508130741 49 246 2.0 3.0 0.00 0.00 0.00 53 1008.8
20260508130239 49 214 0.0 0.0 0.00 0.00 0.00 54 1008.5
20260508125741 49 300 1.0 2.0 0.00 0.00 0.00 54 1008.8
20260508125235 49 355 1.0 2.0 0.00 0.00 0.00 54 1008.5
20260508124741 49 291 2.0 3.0 0.00 0.00 0.00 54 1008.5
20260508124243 49 298 2.0 2.0 0.00 0.00 0.00 53 1008.8
20260508123741 49 269 4.0 5.0 0.00 0.00 0.00 52 1008.5
20260508123238 49 239 1.0 1.0 0.00 0.00 0.00 52 1008.8
20260508122714 48 231 1.0 1.0 0.00 0.00 0.00 53 1008.5
20260508122213 48 231 1.0 1.0 0.00 0.00 0.00 54 1008.5
20260508121712 47 298 3.0 3.0 0.00 0.00 0.00 54 1008.5
20260508121212 46 285 2.0 2.0 0.00 0.00 0.00 54 1008.5
20260508120711 45 286 2.0 2.0 0.00 0.00 0.00 55 1008.5
20260508120211 45 262 1.0 2.0 0.00 0.00 0.00 57 1008.5
20260508115711 44 233 0.0 1.0 0.00 0.00 0.00 59 1008.5
20260508115212 44 238 0.0 0.0 0.00 0.00 0.00 62 1008.5
20260508114713 43 251 0.0 0.0 0.00 0.00 0.00 66 1008.5
20260508114213 43 235 0.0 0.0 0.00 0.00 0.00 69 1008.5
20260508113713 44 235 0.0 0.0 0.00 0.00 0.00 70 1008.5
20260508113210 44 235 0.0 0.0 0.00 0.00 0.00 69 1008.5
20260508112713 44 235 0.0 0.0 0.00 0.00 0.00 69 1008.5
20260508112212 44 236 0.0 0.0 0.00 0.00 0.00 71 1008.5
20260508111710 44 236 0.0 0.0 0.00 0.00 0.00 71 1008.5
20260508111237 44 236 0.0 0.0 0.00 0.00 0.00 71 1008.5
20260508110814 44 236 0.0 0.0 0.00 0.00 0.00 71 1008.5
20260508110349 44 236 0.0 0.0 0.00 0.00 0.00 70 1008.5
20260508105849 44 236 0.0 0.0 0.00 0.00 0.00 69 1008.1
20260508105347 44 236 0.0 0.0 0.00 0.00 0.00 68 1008.5
20260508104846 44 235 0.0 0.0 0.00 0.00 0.00 69 1008.5
20260508104346 44 237 0.0 0.0 0.00 0.00 0.00 70 1008.5
20260508103848 45 227 0.0 0.0 0.00 0.00 0.00 70 1008.5
20260508103344 45 236 0.0 0.0 0.00 0.00 0.00 70 1008.5
20260508102848 45 201 0.0 0.0 0.00 0.00 0.00 70 1008.5
20260508102347 45 238 0.0 0.0 0.00 0.00 0.00 70 1008.5
20260508101842 45 239 0.0 0.0 0.00 0.00 0.00 68 1008.5
20260508101345 45 239 0.0 0.0 0.00 0.00 0.00 69 1008.5
20260508100843 45 239 0.0 1.0 0.00 0.00 0.00 70 1008.5
20260508100345 45 238 0.0 0.0 0.00 0.00 0.00 70 1008.5
20260508095845 45 239 0.0 0.0 0.00 0.00 0.00 71 1008.1
20260508095342 45 237 0.0 1.0 0.00 0.00 0.00 71 1008.5
20260508094844 45 254 0.0 1.0 0.00 0.00 0.00 71 1008.5
20260508094342 46 275 1.0 2.0 0.00 0.00 0.00 71 1008.1
20260508093844 46 281 2.0 2.0 0.00 0.00 0.00 71 1008.5
20260508093342 47 258 1.0 2.0 0.00 0.00 0.00 70 1008.1
20260508092843 48 290 2.0 2.0 0.00 0.00 0.00 69 1008.1
20260508092341 48 242 1.0 1.0 0.00 0.00 0.00 68 1008.5
20260508091841 49 239 0.0 1.0 0.00 0.00 0.00 68 1008.5
20260508091342 49 237 0.0 0.0 0.00 0.00 0.00 66 1008.5
20260508090841 49 253 0.0 1.0 0.00 0.00 0.00 64 1008.5
20260508090342 49 272 1.0 2.0 0.00 0.00 0.00 62 1008.5
20260508085843 49 250 1.0 1.0 0.00 0.00 0.00 62 1008.8
20260508085341 49 273 1.0 1.0 0.00 0.00 0.00 63 1008.5
20260508084840 49 277 3.0 3.0 0.00 0.00 0.00 63 1008.5
20260508084343 49 276 2.0 2.0 0.00 0.00 0.00 63 1008.5
20260508083841 49 281 2.0 2.0 0.00 0.00 0.00 63 1008.8
20260508083341 49 315 1.0 2.0 0.00 0.00 0.00 65 1008.5
20260508082840 49 311 1.0 1.0 0.00 0.00 0.00 65 1008.8
20260508082340 49 247 0.0 1.0 0.00 0.00 0.00 65 1008.5
20260508081841 50 241 0.0 0.0 0.00 0.00 0.00 65 1008.8
20260508081341 50 240 0.0 0.0 0.00 0.00 0.00 65 1008.8
20260508080839 50 239 0.0 0.0 0.00 0.00 0.00 65 1008.8
20260508080340 50 238 0.0 0.0 0.00 0.00 0.00 66 1008.8
20260508075839 50 238 0.0 0.0 0.00 0.00 0.00 67 1008.8
20260508075340 50 238 0.0 0.0 0.00 0.00 0.00 67 1008.8
20260508074839 51 238 0.0 0.0 0.00 0.00 0.00 65 1009.1
20260508074337 51 238 0.0 0.0 0.00 0.00 0.00 64 1008.8
20260508073837 51 257 0.0 1.0 0.00 0.00 0.00 63 1008.8
20260508073339 51 250 0.0 1.0 0.00 0.00 0.00 63 1008.8
20260508072837 51 271 0.0 1.0 0.00 0.00 0.00 63 1008.8
20260508072339 51 245 0.0 0.0 0.00 0.00 0.00 63 1008.8
20260508071837 52 251 1.0 1.0 0.00 0.00 0.00 63 1008.8
20260508071338 52 232 1.0 1.0 0.00 0.00 0.00 62 1008.8
20260508070839 52 232 0.0 1.0 0.00 0.00 0.00 62 1008.8
20260508070337 52 271 1.0 1.0 0.00 0.00 0.00 62 1009.1
20260508065838 53 235 1.0 2.0 0.00 0.00 0.00 62 1008.8
20260508065337 53 298 2.0 2.0 0.00 0.00 0.00 61 1009.1
20260508064836 53 278 0.0 1.0 0.00 0.00 0.00 60 1008.8
20260508064334 53 237 1.0 1.0 0.00 0.00 0.00 60 1009.1
20260508063834 54 225 0.0 1.0 0.00 0.00 0.00 59 1008.8
20260508063336 54 195 1.0 1.0 0.00 0.00 0.00 58 1008.8
20260508062835 54 239 0.0 1.0 0.00 0.00 0.00 57 1008.8
20260508062336 54 231 0.0 1.0 0.00 0.00 0.00 56 1009.1
20260508061834 54 239 0.0 1.0 0.00 0.00 0.00 56 1009.1
20260508061333 55 249 1.0 1.0 0.00 0.00 0.00 56 1009.1
20260508060833 55 248 0.0 0.0 0.00 0.00 0.00 56 1009.1
20260508060334 55 248 0.0 1.0 0.00 0.00 0.00 56 1009.1
20260508055834 55 254 0.0 1.0 0.00 0.00 0.00 56 1009.5
20260508055334 55 239 0.0 0.0 0.00 0.00 0.00 55 1009.5
20260508054833 56 237 0.0 0.0 0.00 0.00 0.00 55 1009.5
20260508054332 56 254 1.0 1.0 0.00 0.00 0.00 54 1009.1
20260508053834 56 247 0.0 1.0 0.00 0.00 0.00 53 1009.1
20260508053333 56 242 1.0 1.0 0.00 0.00 0.00 53 1009.1
20260508052832 56 238 0.0 1.0 0.00 0.00 0.00 54 1009.1
20260508052331 56 235 0.0 0.0 0.00 0.00 0.00 53 1009.1
20260508051831 56 239 0.0 1.0 0.00 0.00 0.00 53 1009.1
20260508051331 56 242 0.0 1.0 0.00 0.00 0.00 53 1009.5
20260508050831 56 234 0.0 0.0 0.00 0.00 0.00 52 1009.1
20260508050332 57 225 0.0 0.0 0.00 0.00 0.00 52 1009.5
20260508045832 57 232 0.0 1.0 0.00 0.00 0.00 52 1009.5
20260508045333 57 248 1.0 1.0 0.00 0.00 0.00 52 1009.5
20260508044830 57 261 1.0 1.0 0.00 0.00 0.00 52 1009.8
20260508044330 58 242 0.0 0.0 0.00 0.00 0.00 53 1009.8
20260508043831 58 242 0.0 1.0 0.00 0.00 0.00 52 1009.5
20260508043330 58 252 0.0 1.0 0.00 0.00 0.00 51 1009.5
20260508042832 59 234 0.0 1.0 0.00 0.00 0.00 51 1009.8
20260508042333 59 246 0.0 0.0 0.00 0.00 0.00 50 1009.5
20260508041830 59 231 0.0 0.0 0.00 0.00 0.00 50 1009.5
20260508041329 59 238 0.0 0.0 0.00 0.00 0.00 50 1009.5
20260508040832 59 227 0.0 0.0 0.00 0.00 0.00 49 1009.5
20260508040333 59 251 1.0 1.0 0.00 0.00 0.00 48 1009.8
20260508035828 60 218 0.0 0.0 0.00 0.00 0.00 48 1009.5
20260508035330 60 219 0.0 0.0 0.00 0.00 0.00 47 1009.5
20260508034830 60 167 0.0 0.0 0.00 0.00 0.00 46 1009.5
20260508034328 61 167 0.0 0.0 0.00 0.00 0.00 46 1009.5
20260508033828 61 167 0.0 0.0 0.00 0.00 0.00 45 1009.5
20260508033330 61 168 0.0 0.0 0.00 0.00 0.00 45 1009.8
20260508032830 62 167 0.0 0.0 0.00 0.00 0.00 44 1009.5
20260508032328 62 166 0.0 0.0 0.00 0.00 0.00 44 1009.1
20260508031829 62 169 0.0 0.0 0.00 0.00 0.00 43 1009.1
20260508031329 62 170 0.0 0.0 0.00 0.00 0.00 43 1009.1
20260508030830 63 158 0.0 0.0 0.00 0.00 0.00 43 1009.5
20260508030329 63 154 0.0 0.0 0.00 0.00 0.00 42 1009.1
20260508025827 64 148 1.0 2.0 0.00 0.00 0.00 42 1009.1
20260508025327 64 199 0.0 0.0 0.00 0.00 0.00 41 1009.1
20260508024827 65 205 0.0 0.0 0.00 0.00 0.00 41 1009.1
20260508024327 65 124 0.0 1.0 0.00 0.00 0.00 40 1009.1
20260508023827 65 160 0.0 0.0 0.00 0.00 0.00 40 1009.1
20260508023327 66 35 1.0 1.0 0.00 0.00 0.00 40 1009.1
20260508022826 66 270 1.0 1.0 0.00 0.00 0.00 39 1009.1
20260508022327 66 278 1.0 1.0 0.00 0.00 0.00 39 1009.1
20260508021826 66 253 1.0 2.0 0.00 0.00 0.00 40 1008.8
20260508021325 66 261 0.0 1.0 0.00 0.00 0.00 40 1009.1
20260508020826 67 225 0.0 1.0 0.00 0.00 0.00 41 1008.8
20260508020326 67 262 1.0 1.0 0.00 0.00 0.00 40 1008.8
20260508015827 68 207 0.0 0.0 0.00 0.00 0.00 40 1008.8
20260508015325 68 216 2.0 2.0 0.00 0.00 0.00 39 1008.8
20260508014827 68 300 2.0 2.0 0.00 0.00 0.00 39 1008.8
20260508014329 68 299 2.0 3.0 0.00 0.00 0.00 38 1008.8
20260508013825 68 247 1.0 2.0 0.00 0.00 0.00 38 1008.8
20260508013325 68 267 2.0 2.0 0.00 0.00 0.00 38 1008.8
20260508012824 68 216 1.0 2.0 0.00 0.00 0.00 38 1008.5
20260508012324 67 252 2.0 2.0 0.00 0.00 0.00 37 1008.8
20260508011825 67 238 0.0 1.0 0.00 0.00 0.00 38 1008.8
20260508011324 67 282 3.0 3.0 0.00 0.00 0.00 38 1008.5
20260508010825 67 232 1.0 1.0 0.00 0.00 0.00 39 1008.8
20260508010324 67 204 0.0 1.0 0.00 0.00 0.00 39 1008.8
20260508005825 68 282 2.0 2.0 0.00 0.00 0.00 40 1008.8
20260508005322 68 255 1.0 2.0 0.00 0.00 0.00 40 1008.8
20260508004822 68 205 1.0 2.0 0.00 0.00 0.00 38 1008.8
20260508004324 68 233 1.0 1.0 0.00 0.00 0.00 36 1008.8
20260508003824 68 251 2.0 2.0 0.00 0.00 0.00 35 1008.8
20260508003324 68 137 1.0 2.0 0.00 0.00 0.00 35 1008.8
20260508002821 68 233 1.0 1.0 0.00 0.00 0.00 36 1008.8
20260508002321 69 205 0.0 0.0 0.00 0.00 0.00 36 1008.8
20260508001821 69 12 1.0 2.0 0.00 0.00 0.00 36 1008.8
20260508001322 69 67 1.0 1.0 0.00 0.00 0.00 35 1008.8
20260508000821 69 103 0.0 1.0 0.00 0.00 0.00 35 1008.5
20260508000321 69 294 2.0 2.0 0.00 0.00 0.00 35 1008.5
20260507235819 70 93 1.0 2.0 0.00 0.00 0.00 35 1008.5
20260507235320 69 86 2.0 3.0 0.00 0.00 0.00 35 1008.5
20260507234822 69 71 0.0 1.0 0.00 0.00 0.00 34 1008.5
20260507234320 68 346 1.0 2.0 0.00 0.00 0.00 35 1008.5
20260507233819 68 275 0.0 1.0 0.00 0.00 0.00 34 1008.5
20260507233320 68 258 3.0 5.0 0.00 0.00 0.00 34 1008.5
20260507232820 67 239 0.0 0.0 0.00 0.00 0.00 35 1008.5
20260507232320 68 70 1.0 2.0 0.00 0.00 0.00 35 1008.8
20260507231819 68 244 3.0 5.0 0.00 0.00 0.00 36 1008.8
20260507231318 68 298 2.0 3.0 0.00 0.00 0.00 36 1008.5
20260507230741 68 319 2.0 2.0 0.00 0.00 0.00 35 1008.5
20260507230243 68 335 2.0 2.0 0.00 0.00 0.00 35 1008.5
20260507225737 69 317 2.0 5.0 0.00 0.00 0.00 35 1008.5
20260507225238 69 173 1.0 2.0 0.00 0.00 0.00 34 1008.5
20260507224741 69 147 2.0 3.0 0.00 0.00 0.00 35 1008.5
20260507224243 70 109 2.0 5.0 0.00 0.00 0.00 35 1008.5
20260507223739 70 148 3.0 6.0 0.00 0.00 0.00 34 1008.5
20260507223239 70 223 3.0 5.0 0.00 0.00 0.00 34 1008.5
20260507222740 70 319 2.0 3.0 0.00 0.00 0.00 33 1008.5
20260507222242 70 36 3.0 5.0 0.00 0.00 0.00 33 1008.5
20260507221740 70 203 2.0 3.0 0.00 0.00 0.00 33 1008.5
20260507221239 70 10 2.0 5.0 0.00 0.00 0.00 34 1008.5
20260507220740 70 215 0.0 1.0 0.00 0.00 0.00 34 1008.5
20260507220239 70 292 4.0 7.0 0.00 0.00 0.00 33 1008.5
20260507215741 70 272 0.0 0.0 0.00 0.00 0.00 33 1008.5
20260507215239 70 272 1.0 2.0 0.00 0.00 0.00 34 1008.8
20260507214741 70 76 2.0 2.0 0.00 0.00 0.00 34 1008.5
20260507214240 70 75 1.0 2.0 0.00 0.00 0.00 35 1008.5
20260507213737 70 288 2.0 2.0 0.00 0.00 0.00 35 1008.5
20260507213240 70 124 1.0 1.0 0.00 0.00 0.00 34 1008.8
20260507212741 70 36 1.0 1.0 0.00 0.00 0.00 35 1008.8
20260507212218 70 99 5.0 9.0 0.00 0.00 0.00 35 1008.8
20260507211716 70 326 3.0 5.0 0.00 0.00 0.00 35 1008.8
20260507211214 71 103 2.0 3.0 0.00 0.00 0.00 36 1009.1
20260507210716 71 197 2.0 3.0 0.00 0.00 0.00 34 1009.1
20260507210215 70 286 3.0 5.0 0.00 0.00 0.00 35 1009.1
20260507205714 70 127 2.0 3.0 0.00 0.00 0.00 35 1009.1
20260507205214 69 337 2.0 2.0 0.00 0.00 0.00 34 1009.1
20260507204714 69 63 3.0 5.0 0.00 0.00 0.00 35 1009.1
20260507204214 68 192 0.0 1.0 0.00 0.00 0.00 34 1009.1
20260507203711 68 187 0.0 0.0 0.00 0.00 0.00 36 1009.1
20260507203214 68 112 3.0 5.0 0.00 0.00 0.00 35 1009.1
20260507202713 67 235 2.0 3.0 0.00 0.00 0.00 36 1009.1
20260507202213 67 308 3.0 3.0 0.00 0.00 0.00 36 1009.1
20260507201642 67 244 4.0 6.0 0.00 0.00 0.00 37 1009.5
20260507201137 66 246 1.0 2.0 0.00 0.00 0.00 37 1009.1
20260507200637 66 100 3.0 6.0 0.00 0.00 0.00 36 1009.1
20260507200141 66 145 1.0 2.0 0.00 0.00 0.00 38 1009.1
20260507195638 66 236 2.0 3.0 0.00 0.00 0.00 38 1009.5
20260507195139 66 255 3.0 3.0 0.00 0.00 0.00 39 1009.1
20260507194637 66 263 2.0 2.0 0.00 0.00 0.00 38 1009.1
20260507194112 66 339 7.0 8.0 0.00 0.00 0.00 38 1009.1
20260507193611 66 258 3.0 5.0 0.00 0.00 0.00 38 1009.1
20260507193113 66 333 1.0 1.0 0.00 0.00 0.00 37 1009.1
20260507192610 66 168 0.0 1.0 0.00 0.00 0.00 38 1009.1
20260507192111 66 238 0.0 1.0 0.00 0.00 0.00 38 1009.1
20260507191609 66 0 2.0 3.0 0.00 0.00 0.00 38 1009.1
20260507191112 66 38 4.0 5.0 0.00 0.00 0.00 38 1009.5
20260507190614 66 268 5.0 8.0 0.00 0.00 0.00 38 1009.1
20260507190112 66 238 3.0 3.0 0.00 0.00 0.00 38 1009.1
20260507185612 66 232 8.0 9.0 0.00 0.00 0.00 37 1009.1
20260507185112 66 112 2.0 2.0 0.00 0.00 0.00 37 1009.1
20260507184609 65 293 1.0 1.0 0.00 0.00 0.00 37 1009.5
20260507184112 65 308 5.0 7.0 0.00 0.00 0.00 39 1009.1
20260507183613 65 299 4.0 6.0 0.00 0.00 0.00 37 1009.5
20260507183114 65 269 3.0 3.0 0.00 0.00 0.00 38 1009.1
20260507182612 65 286 3.0 6.0 0.00 0.00 0.00 38 1009.1
20260507182112 65 288 4.0 5.0 0.00 0.00 0.00 38 1009.1
20260507181613 65 308 5.0 7.0 0.00 0.00 0.00 38 1009.1
20260507181114 65 246 1.0 1.0 0.00 0.00 0.00 38 1009.5
20260507180613 65 151 1.0 2.0 0.00 0.00 0.00 39 1009.1
20260507180116 65 254 3.0 3.0 0.00 0.00 0.00 39 1009.5
20260507175610 65 239 3.0 5.0 0.00 0.00 0.00 39 1009.5
20260507175113 65 220 0.0 1.0 0.00 0.00 0.00 39 1009.1
20260507174610 65 11 3.0 5.0 0.00 0.00 0.00 38 1009.1
20260507174115 65 244 1.0 2.0 0.00 0.00 0.00 40 1009.1
20260507173616 65 314 3.0 3.0 0.00 0.00 0.00 40 1009.5
20260507173135 64 114 1.0 2.0 0.00 0.00 0.00 39 1009.5
20260507172624 64 256 1.0 1.0 0.00 0.00 0.00 39 1009.5
20260507172125 64 194 3.0 5.0 0.00 0.00 0.00 40 1009.5
20260507171624 64 226 4.0 7.0 0.00 0.00 0.00 40 1009.5
20260507171126 64 160 2.0 3.0 0.00 0.00 0.00 39 1009.5
20260507170624 64 353 2.0 2.0 0.00 0.00 0.00 40 1009.5
20260507170124 63 98 3.0 5.0 0.00 0.00 0.00 42 1009.5
20260507165624 63 293 6.0 8.0 0.00 0.00 0.00 41 1009.5
20260507165124 62 298 3.0 5.0 0.00 0.00 0.00 41 1009.5
20260507164624 62 140 4.0 6.0 0.00 0.00 0.00 41 1009.5
20260507164125 61 259 3.0 5.0 0.00 0.00 0.00 40 1009.5
20260507163623 61 225 3.0 6.0 0.00 0.00 0.00 41 1009.5
20260507163123 61 157 3.0 3.0 0.00 0.00 0.00 43 1009.5
20260507162624 60 356 4.0 7.0 0.00 0.00 0.00 43 1009.5
20260507162121 60 13 2.0 3.0 0.00 0.00 0.00 43 1009.5
20260507161625 61 257 4.0 9.0 0.00 0.00 0.00 44 1009.5
20260507161122 60 213 1.0 2.0 0.00 0.00 0.00 45 1009.1
20260507160622 60 243 4.0 6.0 0.00 0.00 0.00 44 1009.5
20260507160122 60 266 3.0 3.0 0.00 0.00 0.00 45 1009.5
20260507155622 60 291 3.0 6.0 0.00 0.00 0.00 45 1009.8
20260507155121 60 269 3.0 5.0 0.00 0.00 0.00 46 1009.8
20260507154624 59 102 3.0 5.0 0.00 0.00 0.00 46 1009.8
20260507154122 59 339 4.0 7.0 0.00 0.00 0.00 47 1009.8
20260507153621 59 319 3.0 3.0 0.00 0.00 0.00 47 1010.2
20260507153121 59 257 5.0 7.0 0.00 0.00 0.00 48 1010.2
20260507152622 59 39 5.0 8.0 0.00 0.00 0.00 47 1009.8
20260507152120 59 262 4.0 6.0 0.00 0.00 0.00 48 1009.8